Tracking 29892 objects as of 21-Nov-2024
HD Live streaming from Space Station
objects crossing your sky now

OBJECT D

Track OBJECT D now!
10-day predictions


NORAD ID: 56156
Int'l Code: 2023-047D
Perigee: 529.0 km
Apogee: 531.6 km
Inclination: 97.5 °
Period: 95.1 minutes
Semi major axis: 6901 km
RCS: Unknown
Launch date: March 30, 2023
Source: People's Republic of China (PRC)
Launch site: Taiyaun Space Center, China (TSC)
Your satellite tracking list
Your tracking list is empty




NASA's NSSDC Master Catalog

Two Line Element Set (TLE):
1 56156U 23047D   24325.58635889  .00011357  00000-0  62380-3 0  9996
2 56156  97.5011 149.9023 0001872  84.2262 275.9183 15.14279104 90994
Source of the keplerian elements: AFSPC